SCP
0 0 0 0 0 0 0 0 0 0 0 0 0 0 0 0 0 -0 -0 0 0 0 0 0 0 0 0 0 0 0 0 0 0 0 0 0 0 0 0 0 0 0 0 0 0 0 0 0 0 0 0 0 0 0
0 0 0 0 0 0 0 0 0 0 0 0 0 0 0 0 0 0 0 0 0 0 0 0 0 0 0 0 0 0 0 0 0 0 0 0 0 0 0 0 0 0 0 0 0 0 0 0 0 0 0 0 0 0
0 0 0 0 0 0 0 0 0 0 0 0 0 0 0 0 0 0 0 0 0 0 0 0 0 0 0 0 -0 0 0 0 0 0 0 0 0 0 0 0 0 0 0 0 0 0 0 0 0 0 0 0 0 0
0 0 0 0 0 0 0 0 0 0 0 0 0 0 0 0 0 0 0 0 0 0 0 0 0 0 0 0 0 0 0 0 0 0 0 0 0 0 0 0 0 0 0 0 0 0 0 0 0 0 0 0 0 0
0 0 0 0 0 0 0 0 0 0 0 0 0 0 0 0 0 0 0 0 0 0 0 0 0 0 0 0 0 0 0 0 0 0 0 0 0 0 0 0 0 0 0 0 0 0 0 0 0 0 0 0 0 0
0 0 0 0 0 0 0 0 0 0 0 0 0 0 0 0 0 0 0 0 0 -0 0 0 0 0 0 0 0 0 0 0 0 0 0 0 0 0 0 0 0 0 0 0 0 0 0 0 0 0 0 0 0 0
0 0 0 0 0 0 0 0 0 0 0 0 0 0 0 0 0 0 0 0 0 0 0 0 0 0 0 0 0 0 0 0 0 0 0 0 0 0 0 0 0 0 0 0 0 0 0 0 0 0 0 0 0 0
0 0 0 0 0 0 0 0 0 0 0 0 0 0 0 0 0 0 0 0 0 0 0 0 0 0 0 0 0 0 0 0 0 0 0 0 0 0 0 0 0 0 0 0 0 0 0 0 0 0 0 0 0 0
0 0 0 0 0 0 0 0 0 0 0 0 0 0 0 0 0 0 0 0 0 0 0 0 0 0 0 0 0 0 0 0 0 0 0 0 0 0 0 0 0 0 0 0 0 0 0 0 0 0 0 0 -0 0
0 0 0 0 0 0 0 0 0 0 0 0 0 0 0 0 0 0 0 0 0 0 0 0 0 0 0 0 0 0 0 0 0 0 0 0 0 0 0 0 0 0 0 0 0 0 0 0 0 0 0 0 -0 0
0 0 0 0 0 0 0 0 0 0 0 0 0 0 0 0 0 0 0 0 0 0 0 0 0 0 0 0 0 0 0 0 0 0 0 0 0 0 0 0 0 0 0 0 0 0 0 0 -0 -0 -0 0 0 0
0 0 0 0 0 0 0 0 0 0 0 0 0 0 0 0 0 0 0 0 0 0 0 0 0 0 0 0 0 0 0 0 0 0 0 0 0 0 0 0 0 0 0 0 0 0 0 0 0 0 0 0 0 0
0 0 0 0 0 0 0 0 0 0 0 0 0 0 0 0 0 0 0 0 0 0 0 0 0 0 0 0 0 0 0 0 0 0 0 0 0 0 0 0 0 0 0 -0 -0 0 0 0 0 0 0 0 0 0
0 0 0 0 0 0 0 0 0 0 0 0 0 0 0 0 0 0 0 0 0 0 0 0 0 0 0 0 0 0 0 0 0 0 0 0 0 0 0 0 -0 -0 -0 -0 0 0 0 0 0 0 0 0 0 0
0 0 0 0 0 0 0 0 0 0 0 0 0 0 0 0 0 0 0 0 0 0 0 0 0 0 0 0 0 0 0 0 0 0 0 0 0 0 0 -0 -0 -0 -0 0 0 0 0 0 0 0 0 0 0 0
0 0 0 0 0 0 0 0 0 0 0 0 0 0 0 0 0 0 0 0 0 0 0 0 0 0 0 0 0 0 0 0 0 0 0 0 0 0 0 -0 -0 -0 0 0 0 0 0 0 0 0 0 0 0 0
0 0 0 0 0 0 0 0 0 0 0 0 0 0 0 0 0 0 0 0 0 0 0 0 0 0 0 0 0 0 0 0 0 0 0 0 0 0 -0 -0 -0 0 0 0 0 0 0 0 0 0 0 0 0 0
0 0 0 0 0 0 0 0 0 0 0 0 0 0 0 0 0 0 0 0 0 0 0 0 0 0 0 0 0 0 0 0 0 0 0 0 -0 -0 -0 -0 -0 0 0 0 0 0 0 0 0 0 0 0 0 0
0 0 0 0 0 0 0 0 0 0 0 0 0 0 0 0 0 0 0 0 0 0 0 0 0 0 0 0 0 0 0 0 0 0 0 0 -0 -0 -0 0 0 0 0 0 0 0 0 -0 -0 0 0 0 0 -0
0 0 0 0 0 0 0 0 0 0 0 0 0 0 0 0 0 0 0 0 0 0 0 0 0 0 0 0 0 0 0 0 0 -0 0 -0 -0 -0 0 0 0 0 0 0 0 0 0 0 0 0 0 0 0 0
0 0 0 0 0 0 0 0 0 0 0 0 0 0 0 0 0 0 0 0 0 0 0 0 0 0 0 0 0 0 -0 -0 0 -0 0 0 -0 -0 0 0 0 0 0 0 0 0 0 0 0 -0 -0 0 0 0
0 0 0 0 0 0 -0 -0 -0 0 0 0 0 0 0 0 0 0 0 0 0 0 0 0 0 0 0 0 0 0 0 0 0 0 -0 -0 -0 0 0 0 0 0 -0 -0 0 -0 0 -0 -0 0 0 0 0 0
0 0 0 0 0 0 -0 -0 0 0 0 0 0 0 0 0 0 0 0 0 0 0 0 0 0 0 0 0 0 0 0 0 0 0 -0 0 0 0 0 -0 -0 -0 -0 -0 -0 0 0 -0 0 0 -0 -0 0 0
0 0 0 0 0 0 -0 0 0 0 0 0 0 0 0 -0 0 -0 0 0 0 0 -0 0 -0 -0 0 0 -0 0 0 0 0 0 0 0 0 0 -0 -0 -0 -0 -0 -0 -0 -0 -0 -0 -0 0 -0 -0 -0 -0
0 0 0 0 0 0 0 0 0 0 0 0 0 0 0 0 0 0 0 0 -0 -0 -0 -0 0 0 -0 -0 -0 0 0 0 0 0 0 0 0 0 0 0 -0 -0 -0 -0 -0 -0 -0 -0 -0 -0 -0 0 0 0
0 0 0 0 0 0 0 0 0 0 0 0 0 0 0 0 0 0 0 -0 -0 -0 -0 0 -0 -0 -0 -0 -0 0 0 0 0 -0 -0 -0 -0 0 0 0 0 0 -0 -0 -0 -0 -0 0 0 0 0 0 0 0
0 0 0 0 0 0 0 0 0 0 0 0 0 0 -0 0 0 0 0 0 0 0 0 -0 -0 0 0 0 0 -0 -0 -0 -0 0 0 -0 0 0 0 0 0 0 -0 -0 -0 -0 -0 -0 -0 -0 0 -0 -0 -0
0 0 0 0 0 0 0 0 0 0 0 0 0 0 0 0 0 0 0 0 0 0 0 0 0 0 0 0 -0 -0 -0 -0 -0 -0 0 0 0 0 0 0 -0 -0 -0 -0 -0 -0 -0 -0 -0 -0 -0 -0 -0 -0
0 0 0 0 0 0 0 0 0 0 0 0 0 0 0 0 0 0 0 0 0 0 0 0 0 0 0 0 0 0 0 0 0 0 0 0 0 -0 -0 -0 -0 -0 -0 -0 0 -0 0 0 0 -0 -0 -0 -0 -0
0 0 0 0 0 0 0 0 0 0 0 0 0 0 0 0 0 0 0 0 0 0 0 0 0 0 0 0 0 0 0 0 0 0 0 -0 0 0 0 0 0 0 0 0 -0 0 -0 0 -0 -0 -0 -0 -0 -0
0 0 0 0 0 0 0 0 0 0 0 0 0 0 0 0 0 0 0 0 0 0 0 0 0 0 0 0 0 0 -0 -0 -0 -0 -0 -0 0 0 -0 0 -0 -0 -0 -0 -0 -0 -0 0 -0 0 0 0 0 0
0 0 0 0 0 0 0 0 0 0 0 0 0 0 0 0 0 0 0 0 0 0 0 0 0 0 -0 -0 0 -0 -0 0 -0 -0 -0 -0 0 -0 -0 -0 -0 -0 0 0 0 0 0 0 0 0 0 0 0 0
0 0 0 0 0 0 0 0 0 0 0 0 0 0 0 0 0 0 0 0 0 0 0 0 -0 -0 0 0 -0 -0 0 -0 -0 -0 -0 0 0 0 0 0 0 0 0 0 0 0 0 0 0 0 0 0 0 0
Wind_Speed_500mb
47 44 41 39 35 31 29 27 24 24 26 27 28 29 30 30 29 27 21 23 20 9 24 13 8 10 5 4 5 5 7 2 2 5 5 4 6 2 5 2 3 4 4 5 4 7 10 13 1 7 6 6 5 7
43 39 37 36 33 31 28 26 25 24 25 26 26 28 28 28 26 28 24 26 26 15 19 36 42 42 37 23 13 7 5 3 1 2 3 2 5 4 2 4 4 6 4 4 7 4 5 9 5 1 2 7 10 11
38 36 35 34 32 29 28 26 24 24 25 27 25 25 24 25 24 24 25 27 28 16 25 10 4 6 4 5 13 11 9 8 4 5 4 2 7 3 5 6 5 6 6 6 5 3 10 10 9 8 3 19 21 23
37 34 32 32 31 27 26 25 24 24 24 27 25 24 21 22 22 23 25 23 18 11 7 6 4 31 32 30 41 32 13 8 9 5 2 2 5 7 4 5 8 5 7 7 17 22 23 28 26 22 32 36 31 29
34 32 31 29 27 25 25 25 25 25 26 28 25 22 18 17 19 21 21 12 10 10 7 21 31 1 9 13 16 20 44 28 4 2 5 5 3 5 4 5 15 17 22 16 15 21 25 25 24 31 37 36 33 35
35 32 29 26 24 24 24 25 26 26 26 28 26 20 16 14 15 15 5 4 6 17 10 7 13 8 19 12 17 21 27 25 14 9 8 7 9 8 7 7 10 14 19 28 33 27 18 34 42 38 31 33 38 43
36 33 29 27 26 25 24 25 24 25 27 23 22 18 13 12 10 5 6 8 13 16 7 12 12 8 22 7 3 10 23 13 13 9 10 11 11 12 8 25 39 36 30 26 26 23 22 19 20 31 37 45 51 56
38 34 30 29 27 27 26 24 23 22 23 20 18 13 11 13 11 6 6 3 4 9 6 6 8 11 17 6 2 4 9 14 11 7 5 8 5 9 9 19 14 10 14 15 10 13 23 33 40 41 40 45 50 55
33 32 30 29 28 27 26 23 22 20 14 13 13 9 12 8 6 7 8 7 9 7 4 5 5 4 16 5 4 0 5 7 3 7 5 6 6 11 18 17 12 8 10 12 22 28 30 31 36 40 45 50 50 54
32 31 30 29 28 26 23 21 19 12 8 7 5 4 4 5 7 4 3 3 4 6 8 8 6 6 9 8 2 5 2 1 4 2 2 6 9 29 30 33 31 27 17 21 28 37 39 42 44 49 50 52 53 63
24 28 29 28 26 24 22 16 16 14 10 7 7 5 8 7 4 4 4 5 5 7 10 11 14 7 5 4 4 3 3 1 4 3 5 5 5 4 7 5 8 11 22 32 38 42 40 42 49 54 59 57 60 59
22 24 26 27 26 24 23 22 22 20 12 10 7 7 8 6 5 3 3 3 8 6 9 8 8 13 5 6 6 1 3 2 5 4 5 5 3 11 17 21 24 24 30 38 41 44 47 47 47 51 56 62 58 55
20 21 24 25 24 24 25 31 30 21 16 8 8 7 6 7 1 9 9 7 6 8 9 7 5 5 5 6 2 2 4 5 7 5 5 1 8 20 24 30 32 31 38 47 48 48 54 56 54 54 58 57 56 53
16 19 21 25 24 25 32 35 29 24 15 9 9 4 9 8 10 10 8 4 5 7 5 8 5 5 6 7 4 4 0 3 5 6 3 2 16 26 31 37 39 42 46 50 50 54 55 57 58 55 51 55 55 59
14 14 19 26 28 31 38 38 32 29 13 9 8 9 13 11 7 7 11 11 16 19 15 8 6 3 3 3 6 4 5 7 6 4 2 15 30 31 39 44 47 53 50 48 49 52 57 54 61 65 58 53 49 49
13 15 24 22 27 36 43 32 29 31 9 10 11 8 11 6 13 13 19 22 11 7 9 7 4 5 8 6 7 11 5 7 2 2 19 30 40 41 47 53 57 51 45 44 47 50 56 58 59 57 54 46 40 39
16 22 6 15 22 36 45 33 32 17 12 9 12 21 16 11 11 7 13 10 2 5 5 7 8 8 3 6 7 8 6 1 8 15 24 38 44 45 51 52 45 42 41 40 46 57 59 55 56 51 51 44 35 32
24 11 17 16 33 41 36 25 15 16 12 16 11 12 25 21 16 18 22 19 11 5 6 6 4 9 7 5 4 3 6 6 16 26 37 44 48 46 43 38 39 38 36 42 49 52 53 56 58 54 53 45 43 28
18 18 22 25 52 33 19 19 13 8 19 10 24 31 20 18 33 34 31 26 23 19 7 8 11 8 11 12 16 21 17 6 28 36 43 43 44 44 32 33 34 32 36 43 47 52 53 51 44 42 47 46 19 12
20 28 22 35 49 10 12 8 14 8 10 13 20 18 16 18 27 29 32 36 37 15 15 11 19 30 15 21 14 17 15 27 38 36 38 40 48 38 28 29 28 32 38 40 45 52 52 43 46 43 38 26 23 17
30 21 24 36 32 9 8 7 12 11 9 13 11 15 13 19 20 23 25 34 23 16 19 39 47 48 47 48 48 46 49 39 40 42 46 46 46 25 25 23 22 28 33 37 45 47 38 37 36 37 31 23 25 23
28 36 37 30 6 10 9 11 8 5 7 8 7 13 10 8 12 14 16 19 15 37 45 52 56 58 58 59 54 49 47 43 37 38 34 35 19 21 17 17 21 24 28 34 39 37 38 38 34 34 32 29 25 20
36 29 13 13 13 14 5 15 8 6 5 5 5 6 8 10 10 10 9 14 17 31 36 44 52 53 55 51 49 49 48 39 33 26 21 6 9 12 15 17 20 22 29 34 33 40 48 56 64 63 55 56 59 56
34 11 8 10 7 7 6 6 10 8 8 7 6 6 6 6 10 10 7 7 11 11 13 13 16 17 24 27 27 26 24 24 17 5 7 10 14 18 18 22 26 31 36 40 42 45 51 55 54 60 66 70 69 77
11 13 10 9 12 8 8 7 9 8 7 8 5 8 6 8 6 7 5 4 3 13 16 4 1 5 15 17 16 11 11 19 28 29 23 22 25 26 29 32 35 36 37 39 44 47 51 55 55 51 63 68 63 62
5 9 12 14 11 9 8 5 9 6 2 5 10 3 5 4 3 5 5 9 12 6 2 9 10 11 21 22 32 41 31 35 28 26 22 23 22 24 27 28 28 32 33 34 35 38 41 46 49 49 49 50 55 55
1 4 7 10 5 5 7 4 7 6 6 4 3 5 4 2 7 6 10 10 12 25 37 41 24 31 39 43 49 40 28 34 32 30 25 20 20 22 23 26 24 27 25 27 30 32 35 37 38 43 48 53 49 50
3 2 1 5 4 6 6 5 4 3 3 4 4 5 4 3 3 5 15 37 32 30 27 26 24 27 28 37 36 37 32 30 26 22 22 22 25 27 31 30 26 24 23 24 27 30 32 36 37 38 41 44 47 47
3 5 7 7 11 8 6 4 2 4 6 6 3 1 5 8 17 32 34 28 19 14 17 22 26 31 32 32 37 33 34 33 30 25 19 18 19 23 26 23 19 17 17 18 22 24 27 31 34 34 33 33 35 34
4 12 6 5 5 4 2 4 6 6 14 8 8 4 7 14 22 29 20 8 5 10 16 21 19 23 26 26 24 23 24 23 22 18 20 16 13 15 18 19 19 18 18 20 22 24 21 21 21 21 21 20 18 19
5 3 4 3 5 5 6 6 5 6 5 3 3 7 12 15 22 15 13 15 14 14 14 15 15 16 14 12 11 13 13 12 11 12 10 13 15 18 18 18 16 16 16 16 15 16 18 16 14 14 15 16 16 15
3 1 2 3 7 3 4 1 4 5 7 5 5 7 7 8 6 7 13 10 14 16 14 14 13 10 9 6 1 3 4 6 12 13 13 17 17 17 19 20 19 18 17 15 13 12 10 8 9 10 10 9 10 11
7 9 10 4 4 2 1 2 2 2 4 6 7 8 6 5 7 8 15 12 6 14 14 11 9 11 13 11 5 2 4 3 12 19 19 13 16 24 23 21 20 15 19 21 20 16 18 11 9 10 10 10 7 8
Wind_Direction_500mb
287 285 285 284 284 278 283 285 294 304 314 326 336 342 346 353 1 4 358 355 358 301 289 264 236 220 232 233 261 332 290 155 258 200 225 171 225 161 262 262 254 260 251 204 184 234 243 10 221 284 34 24 338 334
282 280 281 281 280 274 272 275 281 292 303 314 326 332 336 344 352 353 350 344 337 294 272 289 284 271 255 251 243 252 294 261 232 119 195 166 209 216 263 250 181 238 274 321 248 332 341 299 290 197 75 352 342 320
278 279 279 278 278 273 264 269 272 281 293 302 315 321 325 332 340 345 345 341 343 326 312 326 26 127 130 208 215 225 248 221 201 173 140 92 255 203 244 236 274 203 192 252 280 169 264 254 233 228 292 324 307 301
276 273 274 276 276 269 258 261 265 270 280 290 305 312 313 324 333 339 339 338 347 327 308 282 326 311 285 254 264 251 225 156 130 114 153 196 242 198 244 312 263 302 186 263 265 284 284 264 252 271 298 305 293 292
271 270 269 273 271 263 257 258 261 266 269 279 293 298 298 314 327 334 333 338 4 19 303 289 310 90 353 315 240 224 210 218 238 267 215 233 207 207 212 263 252 230 252 260 275 296 282 276 300 300 303 295 288 293
264 266 266 267 266 261 258 256 260 261 266 280 289 288 288 306 322 336 332 26 3 359 328 303 302 311 340 299 231 213 208 211 213 210 219 221 218 227 253 252 242 236 258 266 269 292 266 284 294 300 293 296 298 297
260 261 260 258 258 259 260 261 261 264 263 271 282 277 270 288 304 278 258 284 310 326 321 294 300 292 345 34 111 196 208 201 200 224 224 246 237 189 257 264 277 289 285 279 274 277 281 287 287 300 301 298 297 291
257 256 255 254 255 257 257 258 259 256 255 271 279 268 265 282 290 255 250 221 307 275 288 285 279 309 2 343 134 138 161 193 214 236 227 229 165 208 256 257 271 281 292 296 287 285 285 294 297 299 301 303 300 295
254 248 247 248 250 253 255 255 252 244 253 277 279 260 276 261 202 204 215 243 240 235 271 240 281 317 343 358 337 91 179 214 216 239 232 206 200 228 244 262 266 254 269 286 303 307 303 297 301 304 307 307 300 296
250 244 243 243 244 246 248 242 237 227 234 261 248 225 196 180 196 255 280 201 204 226 229 248 239 268 326 340 352 324 355 300 250 127 160 231 257 265 277 273 273 272 271 303 314 316 314 307 305 303 303 301 298 293
245 240 238 238 240 238 236 219 195 186 184 201 200 191 169 184 217 230 221 217 186 233 220 235 222 268 275 284 315 26 1 307 256 105 270 221 250 286 344 351 349 308 297 305 308 309 305 301 303 302 301 299 299 296
241 236 234 235 233 230 221 187 179 195 189 189 167 169 191 204 201 231 239 202 219 247 209 218 223 214 238 223 262 57 288 231 251 348 254 245 37 0 353 339 327 321 320 320 319 315 314 308 304 302 302 308 302 300
240 236 232 231 228 219 201 182 188 189 194 185 196 179 181 183 96 214 207 199 226 209 216 214 216 196 191 213 229 265 251 247 311 229 241 329 14 351 346 337 326 326 330 328 321 319 316 311 310 307 302 317 314 308
255 236 229 219 215 204 184 182 192 195 192 191 175 233 208 191 227 206 214 216 234 217 18 244 244 231 191 183 147 256 210 275 252 239 232 95 344 337 346 347 339 328 325 326 322 320 316 315 313 311 309 311 313 313
257 246 224 220 202 191 183 180 197 200 197 194 179 226 223 230 228 206 227 255 259 275 286 207 240 225 239 244 179 244 218 236 240 274 276 332 332 332 335 337 334 332 325 321 322 320 320 320 323 325 322 312 309 310
250 252 237 209 197 186 181 189 192 194 219 200 219 252 234 244 234 229 238 260 284 262 189 219 179 217 223 219 174 213 215 226 175 241 321 332 333 335 338 335 332 329 326 325 327 329 327 329 328 325 322 321 311 309
233 243 217 181 192 187 182 193 189 191 207 212 231 230 240 275 258 233 194 196 177 183 218 191 213 225 128 245 214 206 215 86 336 325 332 349 343 340 337 334 337 332 330 331 331 332 332 332 334 328 330 333 322 314
228 204 191 194 181 174 186 195 190 203 212 222 238 232 224 233 245 247 244 229 240 229 241 257 274 206 235 245 241 209 271 39 4 344 340 343 342 339 339 339 336 334 337 337 337 336 336 339 338 335 335 321 318 309
209 201 202 185 171 166 174 188 196 210 225 228 235 244 242 244 248 253 255 243 231 233 251 229 242 223 224 229 251 268 273 303 338 330 329 336 341 340 341 341 342 342 342 347 348 349 348 346 342 347 348 348 340 343
212 188 185 176 181 148 165 187 184 228 224 218 229 235 232 240 258 259 254 243 238 224 210 222 232 232 224 235 256 269 266 316 325 321 320 328 335 337 338 339 342 341 342 349 354 -0 356 1 3 7 11 31 62 51
188 189 187 191 188 159 170 184 218 226 231 231 247 223 246 245 248 244 242 236 211 216 233 236 241 243 245 252 264 276 280 290 302 310 308 315 328 338 338 340 348 346 353 357 0 3 6 12 10 8 15 39 47 63
156 163 170 173 126 176 236 213 235 248 230 250 236 214 232 232 234 230 214 194 226 236 234 244 245 245 248 249 253 258 260 275 284 297 305 315 328 346 2 10 8 11 14 16 16 33 42 34 34 41 54 64 72 66
177 159 119 153 196 200 200 183 216 224 245 230 218 229 227 222 221 193 236 222 238 253 256 257 262 257 257 264 258 251 257 267 271 288 306 329 6 42 50 36 35 41 44 46 54 65 68 72 68 66 70 76 71 62
168 152 137 187 208 208 201 213 202 233 236 230 222 250 244 207 206 223 244 239 241 275 291 288 279 243 231 236 243 249 249 250 258 236 115 104 105 88 70 64 71 76 68 71 71 70 73 74 75 76 78 80 79 76
155 183 202 179 199 210 204 207 202 210 240 217 212 230 233 213 226 219 230 248 2 317 303 257 48 178 194 198 204 202 207 148 131 107 107 112 108 96 86 92 92 86 85 82 77 74 75 75 72 69 72 75 75 76
200 185 189 189 174 208 210 220 201 195 311 261 233 257 217 236 302 298 309 326 329 335 216 267 262 196 162 143 131 132 127 134 128 110 117 112 105 106 103 103 99 93 88 80 75 76 77 74 74 76 74 72 76 78
169 189 206 212 216 244 256 229 265 266 252 245 327 332 52 140 233 261 306 46 87 93 89 76 91 140 131 132 139 136 138 134 127 132 130 118 104 108 112 109 107 102 90 78 80 78 76 82 80 81 82 83 80 81
248 248 250 167 222 216 257 261 211 241 298 336 328 7 266 273 38 36 105 105 108 111 98 84 85 104 122 134 145 148 145 138 136 136 124 109 109 111 125 124 116 106 96 91 89 84 86 93 99 97 95 93 93 91
241 163 141 210 235 246 237 238 18 34 332 291 276 289 326 47 92 126 135 126 108 82 56 61 73 91 104 128 147 153 153 156 151 149 146 136 127 131 133 128 125 111 92 98 101 103 96 102 101 103 105 103 99 96
250 196 219 235 236 252 279 180 123 243 280 275 301 322 105 103 124 152 166 178 113 89 94 97 109 116 112 120 128 131 153 165 169 161 160 155 150 154 145 140 138 127 118 113 111 114 114 110 110 108 106 106 106 102
293 219 277 302 297 316 338 305 309 316 309 322 37 122 117 124 113 110 158 162 151 140 135 129 106 106 132 148 157 167 179 179 178 174 145 157 168 167 168 167 158 150 154 148 135 123 122 124 118 110 112 110 110 109
87 237 276 261 261 275 142 358 338 2 28 53 72 99 118 133 110 74 40 144 173 172 170 176 178 182 164 168 62 279 230 203 213 215 219 204 191 185 188 185 191 194 196 197 187 175 162 164 145 136 133 119 95 91
220 229 224 234 207 205 205 141 28 21 45 49 58 63 43 33 78 24 19 35 178 209 221 223 214 185 186 174 135 328 15 246 232 229 239 238 212 217 221 225 215 223 231 235 234 236 229 246 215 206 195 167 150 136
Wind_Speed_850mb
47 44 41 39 35 31 29 27 24 24 26 27 28 29 30 30 29 27 21 23 20 9 24 13 8 10 5 4 5 5 7 2 2 5 5 4 6 2 5 2 3 4 4 5 4 7 10 13 1 7 6 6 5 7
43 39 37 36 33 31 28 26 25 24 25 26 26 28 28 28 26 28 24 26 26 15 19 36 42 42 37 23 13 7 5 3 1 2 3 2 5 4 2 4 4 6 4 4 7 4 5 9 5 1 2 7 10 11
38 36 35 34 32 29 28 26 24 24 25 27 25 25 24 25 24 24 25 27 28 16 25 10 4 6 4 5 13 11 9 8 4 5 4 2 7 3 5 6 5 6 6 6 5 3 10 10 9 8 3 19 21 23
37 34 32 32 31 27 26 25 24 24 24 27 25 24 21 22 22 23 25 23 18 11 7 6 4 31 32 30 41 32 13 8 9 5 2 2 5 7 4 5 8 5 7 7 17 22 23 28 26 22 32 36 31 29
34 32 31 29 27 25 25 25 25 25 26 28 25 22 18 17 19 21 21 12 10 10 7 21 31 1 9 13 16 20 44 28 4 2 5 5 3 5 4 5 15 17 22 16 15 21 25 25 24 31 37 36 33 35
35 32 29 26 24 24 24 25 26 26 26 28 26 20 16 14 15 15 5 4 6 17 10 7 13 8 19 12 17 21 27 25 14 9 8 7 9 8 7 7 10 14 19 28 33 27 18 34 42 38 31 33 38 43
36 33 29 27 26 25 24 25 24 25 27 23 22 18 13 12 10 5 6 8 13 16 7 12 12 8 22 7 3 10 23 13 13 9 10 11 11 12 8 25 39 36 30 26 26 23 22 19 20 31 37 45 51 56
38 34 30 29 27 27 26 24 23 22 23 20 18 13 11 13 11 6 6 3 4 9 6 6 8 11 17 6 2 4 9 14 11 7 5 8 5 9 9 19 14 10 14 15 10 13 23 33 40 41 40 45 50 55
33 32 30 29 28 27 26 23 22 20 14 13 13 9 12 8 6 7 8 7 9 7 4 5 5 4 16 5 4 0 5 7 3 7 5 6 6 11 18 17 12 8 10 12 22 28 30 31 36 40 45 50 50 54
32 31 30 29 28 26 23 21 19 12 8 7 5 4 4 5 7 4 3 3 4 6 8 8 6 6 9 8 2 5 2 1 4 2 2 6 9 29 30 33 31 27 17 21 28 37 39 42 44 49 50 52 53 63
24 28 29 28 26 24 22 16 16 14 10 7 7 5 8 7 4 4 4 5 5 7 10 11 14 7 5 4 4 3 3 1 4 3 5 5 5 4 7 5 8 11 22 32 38 42 40 42 49 54 59 57 60 59
22 24 26 27 26 24 23 22 22 20 12 10 7 7 8 6 5 3 3 3 8 6 9 8 8 13 5 6 6 1 3 2 5 4 5 5 3 11 17 21 24 24 30 38 41 44 47 47 47 51 56 62 58 55
20 21 24 25 24 24 25 31 30 21 16 8 8 7 6 7 1 9 9 7 6 8 9 7 5 5 5 6 2 2 4 5 7 5 5 1 8 20 24 30 32 31 38 47 48 48 54 56 54 54 58 57 56 53
16 19 21 25 24 25 32 35 29 24 15 9 9 4 9 8 10 10 8 4 5 7 5 8 5 5 6 7 4 4 0 3 5 6 3 2 16 26 31 37 39 42 46 50 50 54 55 57 58 55 51 55 55 59
14 14 19 26 28 31 38 38 32 29 13 9 8 9 13 11 7 7 11 11 16 19 15 8 6 3 3 3 6 4 5 7 6 4 2 15 30 31 39 44 47 53 50 48 49 52 57 54 61 65 58 53 49 49
13 15 24 22 27 36 43 32 29 31 9 10 11 8 11 6 13 13 19 22 11 7 9 7 4 5 8 6 7 11 5 7 2 2 19 30 40 41 47 53 57 51 45 44 47 50 56 58 59 57 54 46 40 39
16 22 6 15 22 36 45 33 32 17 12 9 12 21 16 11 11 7 13 10 2 5 5 7 8 8 3 6 7 8 6 1 8 15 24 38 44 45 51 52 45 42 41 40 46 57 59 55 56 51 51 44 35 32
24 11 17 16 33 41 36 25 15 16 12 16 11 12 25 21 16 18 22 19 11 5 6 6 4 9 7 5 4 3 6 6 16 26 37 44 48 46 43 38 39 38 36 42 49 52 53 56 58 54 53 45 43 28
18 18 22 25 52 33 19 19 13 8 19 10 24 31 20 18 33 34 31 26 23 19 7 8 11 8 11 12 16 21 17 6 28 36 43 43 44 44 32 33 34 32 36 43 47 52 53 51 44 42 47 46 19 12
20 28 22 35 49 10 12 8 14 8 10 13 20 18 16 18 27 29 32 36 37 15 15 11 19 30 15 21 14 17 15 27 38 36 38 40 48 38 28 29 28 32 38 40 45 52 52 43 46 43 38 26 23 17
30 21 24 36 32 9 8 7 12 11 9 13 11 15 13 19 20 23 25 34 23 16 19 39 47 48 47 48 48 46 49 39 40 42 46 46 46 25 25 23 22 28 33 37 45 47 38 37 36 37 31 23 25 23
28 36 37 30 6 10 9 11 8 5 7 8 7 13 10 8 12 14 16 19 15 37 45 52 56 58 58 59 54 49 47 43 37 38 34 35 19 21 17 17 21 24 28 34 39 37 38 38 34 34 32 29 25 20
36 29 13 13 13 14 5 15 8 6 5 5 5 6 8 10 10 10 9 14 17 31 36 44 52 53 55 51 49 49 48 39 33 26 21 6 9 12 15 17 20 22 29 34 33 40 48 56 64 63 55 56 59 56
34 11 8 10 7 7 6 6 10 8 8 7 6 6 6 6 10 10 7 7 11 11 13 13 16 17 24 27 27 26 24 24 17 5 7 10 14 18 18 22 26 31 36 40 42 45 51 55 54 60 66 70 69 77
11 13 10 9 12 8 8 7 9 8 7 8 5 8 6 8 6 7 5 4 3 13 16 4 1 5 15 17 16 11 11 19 28 29 23 22 25 26 29 32 35 36 37 39 44 47 51 55 55 51 63 68 63 62
5 9 12 14 11 9 8 5 9 6 2 5 10 3 5 4 3 5 5 9 12 6 2 9 10 11 21 22 32 41 31 35 28 26 22 23 22 24 27 28 28 32 33 34 35 38 41 46 49 49 49 50 55 55
1 4 7 10 5 5 7 4 7 6 6 4 3 5 4 2 7 6 10 10 12 25 37 41 24 31 39 43 49 40 28 34 32 30 25 20 20 22 23 26 24 27 25 27 30 32 35 37 38 43 48 53 49 50
3 2 1 5 4 6 6 5 4 3 3 4 4 5 4 3 3 5 15 37 32 30 27 26 24 27 28 37 36 37 32 30 26 22 22 22 25 27 31 30 26 24 23 24 27 30 32 36 37 38 41 44 47 47
3 5 7 7 11 8 6 4 2 4 6 6 3 1 5 8 17 32 34 28 19 14 17 22 26 31 32 32 37 33 34 33 30 25 19 18 19 23 26 23 19 17 17 18 22 24 27 31 34 34 33 33 35 34
4 12 6 5 5 4 2 4 6 6 14 8 8 4 7 14 22 29 20 8 5 10 16 21 19 23 26 26 24 23 24 23 22 18 20 16 13 15 18 19 19 18 18 20 22 24 21 21 21 21 21 20 18 19
5 3 4 3 5 5 6 6 5 6 5 3 3 7 12 15 22 15 13 15 14 14 14 15 15 16 14 12 11 13 13 12 11 12 10 13 15 18 18 18 16 16 16 16 15 16 18 16 14 14 15 16 16 15
3 1 2 3 7 3 4 1 4 5 7 5 5 7 7 8 6 7 13 10 14 16 14 14 13 10 9 6 1 3 4 6 12 13 13 17 17 17 19 20 19 18 17 15 13 12 10 8 9 10 10 9 10 11
7 9 10 4 4 2 1 2 2 2 4 6 7 8 6 5 7 8 15 12 6 14 14 11 9 11 13 11 5 2 4 3 12 19 19 13 16 24 23 21 20 15 19 21 20 16 18 11 9 10 10 10 7 8
Wind_Direction_850mb
287 285 285 284 284 278 283 285 294 304 314 326 336 342 346 353 1 4 358 355 358 301 289 264 236 220 232 233 261 332 290 155 258 200 225 171 225 161 262 262 254 260 251 204 184 234 243 10 221 284 34 24 338 334
282 280 281 281 280 274 272 275 281 292 303 314 326 332 336 344 352 353 350 344 337 294 272 289 284 271 255 251 243 252 294 261 232 119 195 166 209 216 263 250 181 238 274 321 248 332 341 299 290 197 75 352 342 320
278 279 279 278 278 273 264 269 272 281 293 302 315 321 325 332 340 345 345 341 343 326 312 326 26 127 130 208 215 225 248 221 201 173 140 92 255 203 244 236 274 203 192 252 280 169 264 254 233 228 292 324 307 301
276 273 274 276 276 269 258 261 265 270 280 290 305 312 313 324 333 339 339 338 347 327 308 282 326 311 285 254 264 251 225 156 130 114 153 196 242 198 244 312 263 302 186 263 265 284 284 264 252 271 298 305 293 292
271 270 269 273 271 263 257 258 261 266 269 279 293 298 298 314 327 334 333 338 4 19 303 289 310 90 353 315 240 224 210 218 238 267 215 233 207 207 212 263 252 230 252 260 275 296 282 276 300 300 303 295 288 293
264 266 266 267 266 261 258 256 260 261 266 280 289 288 288 306 322 336 332 26 3 359 328 303 302 311 340 299 231 213 208 211 213 210 219 221 218 227 253 252 242 236 258 266 269 292 266 284 294 300 293 296 298 297
260 261 260 258 258 259 260 261 261 264 263 271 282 277 270 288 304 278 258 284 310 326 321 294 300 292 345 34 111 196 208 201 200 224 224 246 237 189 257 264 277 289 285 279 274 277 281 287 287 300 301 298 297 291
257 256 255 254 255 257 257 258 259 256 255 271 279 268 265 282 290 255 250 221 307 275 288 285 279 309 2 343 134 138 161 193 214 236 227 229 165 208 256 257 271 281 292 296 287 285 285 294 297 299 301 303 300 295
254 248 247 248 250 253 255 255 252 244 253 277 279 260 276 261 202 204 215 243 240 235 271 240 281 317 343 358 337 91 179 214 216 239 232 206 200 228 244 262 266 254 269 286 303 307 303 297 301 304 307 307 300 296
250 244 243 243 244 246 248 242 237 227 234 261 248 225 196 180 196 255 280 201 204 226 229 248 239 268 326 340 352 324 355 300 250 127 160 231 257 265 277 273 273 272 271 303 314 316 314 307 305 303 303 301 298 293
245 240 238 238 240 238 236 219 195 186 184 201 200 191 169 184 217 230 221 217 186 233 220 235 222 268 275 284 315 26 1 307 256 105 270 221 250 286 344 351 349 308 297 305 308 309 305 301 303 302 301 299 299 296
241 236 234 235 233 230 221 187 179 195 189 189 167 169 191 204 201 231 239 202 219 247 209 218 223 214 238 223 262 57 288 231 251 348 254 245 37 0 353 339 327 321 320 320 319 315 314 308 304 302 302 308 302 300
240 236 232 231 228 219 201 182 188 189 194 185 196 179 181 183 96 214 207 199 226 209 216 214 216 196 191 213 229 265 251 247 311 229 241 329 14 351 346 337 326 326 330 328 321 319 316 311 310 307 302 317 314 308
255 236 229 219 215 204 184 182 192 195 192 191 175 233 208 191 227 206 214 216 234 217 18 244 244 231 191 183 147 256 210 275 252 239 232 95 344 337 346 347 339 328 325 326 322 320 316 315 313 311 309 311 313 313
257 246 224 220 202 191 183 180 197 200 197 194 179 226 223 230 228 206 227 255 259 275 286 207 240 225 239 244 179 244 218 236 240 274 276 332 332 332 335 337 334 332 325 321 322 320 320 320 323 325 322 312 309 310
250 252 237 209 197 186 181 189 192 194 219 200 219 252 234 244 234 229 238 260 284 262 189 219 179 217 223 219 174 213 215 226 175 241 321 332 333 335 338 335 332 329 326 325 327 329 327 329 328 325 322 321 311 309
233 243 217 181 192 187 182 193 189 191 207 212 231 230 240 275 258 233 194 196 177 183 218 191 213 225 128 245 214 206 215 86 336 325 332 349 343 340 337 334 337 332 330 331 331 332 332 332 334 328 330 333 322 314
228 204 191 194 181 174 186 195 190 203 212 222 238 232 224 233 245 247 244 229 240 229 241 257 274 206 235 245 241 209 271 39 4 344 340 343 342 339 339 339 336 334 337 337 337 336 336 339 338 335 335 321 318 309
209 201 202 185 171 166 174 188 196 210 225 228 235 244 242 244 248 253 255 243 231 233 251 229 242 223 224 229 251 268 273 303 338 330 329 336 341 340 341 341 342 342 342 347 348 349 348 346 342 347 348 348 340 343
212 188 185 176 181 148 165 187 184 228 224 218 229 235 232 240 258 259 254 243 238 224 210 222 232 232 224 235 256 269 266 316 325 321 320 328 335 337 338 339 342 341 342 349 354 -0 356 1 3 7 11 31 62 51
188 189 187 191 188 159 170 184 218 226 231 231 247 223 246 245 248 244 242 236 211 216 233 236 241 243 245 252 264 276 280 290 302 310 308 315 328 338 338 340 348 346 353 357 0 3 6 12 10 8 15 39 47 63
156 163 170 173 126 176 236 213 235 248 230 250 236 214 232 232 234 230 214 194 226 236 234 244 245 245 248 249 253 258 260 275 284 297 305 315 328 346 2 10 8 11 14 16 16 33 42 34 34 41 54 64 72 66
177 159 119 153 196 200 200 183 216 224 245 230 218 229 227 222 221 193 236 222 238 253 256 257 262 257 257 264 258 251 257 267 271 288 306 329 6 42 50 36 35 41 44 46 54 65 68 72 68 66 70 76 71 62
168 152 137 187 208 208 201 213 202 233 236 230 222 250 244 207 206 223 244 239 241 275 291 288 279 243 231 236 243 249 249 250 258 236 115 104 105 88 70 64 71 76 68 71 71 70 73 74 75 76 78 80 79 76
155 183 202 179 199 210 204 207 202 210 240 217 212 230 233 213 226 219 230 248 2 317 303 257 48 178 194 198 204 202 207 148 131 107 107 112 108 96 86 92 92 86 85 82 77 74 75 75 72 69 72 75 75 76
200 185 189 189 174 208 210 220 201 195 311 261 233 257 217 236 302 298 309 326 329 335 216 267 262 196 162 143 131 132 127 134 128 110 117 112 105 106 103 103 99 93 88 80 75 76 77 74 74 76 74 72 76 78
169 189 206 212 216 244 256 229 265 266 252 245 327 332 52 140 233 261 306 46 87 93 89 76 91 140 131 132 139 136 138 134 127 132 130 118 104 108 112 109 107 102 90 78 80 78 76 82 80 81 82 83 80 81
248 248 250 167 222 216 257 261 211 241 298 336 328 7 266 273 38 36 105 105 108 111 98 84 85 104 122 134 145 148 145 138 136 136 124 109 109 111 125 124 116 106 96 91 89 84 86 93 99 97 95 93 93 91
241 163 141 210 235 246 237 238 18 34 332 291 276 289 326 47 92 126 135 126 108 82 56 61 73 91 104 128 147 153 153 156 151 149 146 136 127 131 133 128 125 111 92 98 101 103 96 102 101 103 105 103 99 96
250 196 219 235 236 252 279 180 123 243 280 275 301 322 105 103 124 152 166 178 113 89 94 97 109 116 112 120 128 131 153 165 169 161 160 155 150 154 145 140 138 127 118 113 111 114 114 110 110 108 106 106 106 102
293 219 277 302 297 316 338 305 309 316 309 322 37 122 117 124 113 110 158 162 151 140 135 129 106 106 132 148 157 167 179 179 178 174 145 157 168 167 168 167 158 150 154 148 135 123 122 124 118 110 112 110 110 109
87 237 276 261 261 275 142 358 338 2 28 53 72 99 118 133 110 74 40 144 173 172 170 176 178 182 164 168 62 279 230 203 213 215 219 204 191 185 188 185 191 194 196 197 187 175 162 164 145 136 133 119 95 91
220 229 224 234 207 205 205 141 28 21 45 49 58 63 43 33 78 24 19 35 178 209 221 223 214 185 186 174 135 328 15 246 232 229 239 238 212 217 221 225 215 223 231 235 234 236 229 246 215 206 195 167 150 136